sat.trackr.live / text

‹ back to catalog

ASTRA 4A

NORAD 32299 · 2007-057A

PAYLOAD ACTIVE UNKNOWN

§ Identity

Operator
Country
SES
Launch date
2007-11-17
Launch site
TYMSC
Launch vehicle
Mass (kg)
RCS (m²)
20.00

Purposes: comms

External: N2YO · Heavens-Above · Gunter

§ Orbital elements

Epoch: 2026-09-19T08:26:25.985760Z

Period
1,436.12 min
Inclination
0.0099°
Eccentricity
0.0002451
Mean motion
1.00269906 rev/d
Perigee alt
35,776.8 km
Apogee alt
35,797.5 km
Semi-major
42,165.3 km
B*
0.0000e+0
RAAN
162.0458°
Arg perigee
17.2891°
Mean anomaly
310.3425°
Rev number
5,259

§ Raw data

ASTRA 4A1 32299U 07057A   26262.35168965  .00000000  00000+0  00000+0 0  99932 32299   0.0099 162.0458 0002451  17.2891 310.3425  1.00269906 52593

JSON: /api/v1/satellites/32299 · /tle

For live sub-satellite position, see the globe view (requires WebGL).

§ Visibility from observer

Set your observer location to see the next 7 days of passes ≥ 10°. The values pass through the URL so the page stays shareable.

No JS? Fill the form by hand. The geolocation button needs JavaScript.